Regional Weather Roundup
Issued by NWS Albany, NY

Home | Current Version | Previous Version | Text Only | Print | Product List | Glossary On
Versions: 1 2 3 4 5 6 7 8 9 10 11 12 13 14 15 16 17 18 19 20 21 22 23 24 25 26 27 28 29 30 31 32 33 34 35 36 37 38 39 40 41 42 43 44 45 46 47 48 49 50
000
ASUS41 KALY 010410
RWRALY

NEW YORK STATE HOURLY WEATHER ROUNDUP
NATIONAL WEATHER SERVICE ALBANY NY
1200 AM EDT FRI AUG 01 2014

NOTE: "FAIR" INDICATES FEW OR NO CLOUDS BELOW 12,000 FEET WITH NO
SIGNIFICANT WEATHER AND/OR NO OBSTRUCTIONS TO VISIBILITY.

NYZ032-033-038>043-046>054-057>066-NYZ062>081-010500-
EAST


CITY           SKY/WX    TMP DP  RH WIND       PRES   REMARKS
ALBANY         CLEAR     64  62  93 CALM      30.14R
GLENS FALLS    CLEAR     61  58  90 N3        30.13R
POUGHKEEPSIE   CLEAR     65  62  90 CALM      30.13R
NEWBURGH       CLEAR     68  61  77 CALM      30.16R
MONTGOMERY     CLEAR     62  59  90 CALM      30.14R
WHITE PLAINS   PTCLDY    68  65  90 CALM      30.15R
ISLIP          MOCLDY    73  67  81 S8        30.15R
NEW YORK CITY  MOCLDY    76  64  66 SW7       30.13S
CENTRAL PARK   PTCLDY    75  64  68 VRB7      30.17R
$$

NYZ005>009-017-018-044>046-055-056-010500-
CENTRAL


CITY           SKY/WX    TMP DP  RH WIND       PRES   REMARKS
FULTON         CLEAR     62  59  90 VRB3      30.10S
SYRACUSE       CLOUDY    63  60  90 E3        30.10S
ROME           MOCLDY    60  59  96 SE5       30.13F
ELMIRA         CLEAR     54  53  97 CALM      30.13R
BINGHAMTON     CLEAR     65  58  78 S5        30.15S
MONTICELLO     CLEAR     57  57 100 CALM      30.19R
$$

NYZ026>034-041>043-010500-
NORTH


CITY           SKY/WX    TMP DP  RH WIND       PRES   REMARKS
WATERTOWN      CLEAR     61  52  72 CALM      30.08S
FORT DRUM      NOT AVBL
MASSENA        CLEAR     57  55  93 S3        30.08R
SARANAC LAKE   CLEAR     47  46  97 CALM      30.12S
PLATTSBURGH    FOG       56  56 100 CALM      30.10R VSB 1
$$

NYZ001>004-010>016-019>021-010500-
WEST


CITY           SKY/WX    TMP DP  RH WIND       PRES   REMARKS
NIAGARA FALLS  CLOUDY    65  57  75 S6        30.06F
BUFFALO        PTCLDY    63  50  62 S8        30.08S
DUNKIRK        MOCLDY    61  53  75 S7        30.08F
JAMESTOWN      CLEAR     57  52  82 S3        30.14R
WELLSVILLE     CLEAR     60  51  72 CALM      30.17S
ROCHESTER      PTCLDY    63  52  67 SW5       30.09S
PENN YAN       CLEAR     64  60  87 S6        30.12S
$$

             KEY
       WCI = WIND CHILL INDEX
       VSB = VISIBILITY
       HX  = HEAT INDEX
$$



USA.gov is the U.S. government's official web portal to all federal, state and local government web resources and services.